Location: Unspecified
(0.0000°N, 0.0000°E)
Time: 16:43:47
(UTC+00:00)

AO-7 - Pass Details

Date: 13 December 2017
Orbit: 1440 x 1458 km, 101.7° (Epoch: 19 July)

Event Time Altitude Azimuth Distance (km) Brightness Sun altitude
Exits shadow 04:20:09 32° 282° (WNW) 2,299 ? -21.5°
Drops below altitude 10° 04:26:58 10° 227° (SW) 3,578 ? -20.0°
Sets 04:30:09 0° 217° (SW) 4,556 ? -19.2°
